Regional Weather Roundup
Issued by NWS

Home | Current Version | Previous Version | Graphics & Text | Print | Product List | Glossary On
Versions: 1 2 3 4 5 6 7 8 9 10 11 12 13 14 15 16 17 18 19 20 21 22 23 24 25 26 27 28 29 30 31 32 33 34 35 36 37 38 39 40 41 42 43 44 45 46 47 48 49 50
793
ASUS43 KMKX 171700
RWRWI

WISCONSIN REGIONAL WEATHER ROUNDUP
NATIONAL WEATHER SERVICE MILWAUKEE/SULLIVAN WI
1100 AM CST WED JAN 17 2018

NOTE: "FAIR" INDICATES FEW OR NO CLOUDS BELOW 12,000 FEET WITH NO
SIGNIFICANT WEATHER AND/OR OBSTRUCTIONS TO VISIBILITY.

WIZ001-002-006>008-014>016-023>028-171800-
NORTHWEST WISCONSIN

CITY           SKY/WX    TMP DP  RH WIND       PRES   REMARKS
SUPERIOR ARPT  FAIR      13   1  56 SW15      30.10F WCI  -2
ASHLAND        FAIR      17   2  51 SW17G28   30.08F WCI   1
HAYWARD        FAIR      13   1  59 SW14      30.15F WCI  -2
SIREN          FAIR      11   0  60 SW12      30.20F WCI  -3
CUMBERLAND     FAIR      10   1  67 SW9       30.21F WCI  -2
RICE LAKE      FAIR      13   2  64 CALM      30.25F
CHETEK         FAIR      11   1  65 S6        30.25F WCI   1
LADYSMITH      FAIR      10   1  68 S8        30.24F WCI  -3
EAU CLAIRE     NOT AVBL
MENOMONIE      FAIR      15   2  57 S10       30.30F WCI   2
NEW RICHMOND   FAIR      12   1  60 SW13      30.25F WCI  -2
OSCEOLA        FAIR      10   2  68 S7        30.28F WCI   0
$$

WIZ003>005-009-010-017-018-171800-
NORTH CENTRAL WISCONSIN

CITY           SKY/WX    TMP DP  RH WIND       PRES   REMARKS
MANITOWISH WTR FAIR      11  -1  59 SW14      30.09F WCI  -5
ARBOR VITAE    FAIR      14   5  67 SW9       30.12F WCI   2
WOODRUFF       FAIR      14   5  67 SW9       30.12F WCI   2
RHINELANDER    FAIR      13   2  61 SW15      30.13F WCI  -3
EAGLE RIVER    FAIR      12   1  61 SW15      30.10F WCI  -4
LAND O LAKES   FAIR      12   3  67 SW7       30.09F WCI   2
PHILLIPS       FAIR       9   0  64 SW12      30.16F WCI  -5
TOMAHAWK       FAIR      12   2  63 SW6       30.19F WCI   3
MEDFORD        FAIR       8  -1  69 SW10G17   30.22F WCI  -7
MERRILL        FAIR      12   1  61 SW13      30.23F WCI  -3
$$

WIZ029-030-035-036-043>047-171800-
CENTRAL WISCONSIN

CITY           SKY/WX    TMP DP  RH WIND       PRES   REMARKS
WAUSAU         FAIR      11   1  64 SW9       30.24F WCI  -2
MOSINEE        PTSUNNY    9   1  72 SW15G21   30.27F WCI  -8
MARSHFIELD     FAIR      10   1  67 W10       30.27F WCI  -4
STEVENS POINT  FAIR       9  -1  65 W13       30.31F WCI  -7
WAUPACA        FAIR      19   2  48 W20G28    30.35F WCI   3
WAUTOMA        FAIR      19   5  54 W15       30.36F WCI   5
WISC RAPIDS    FAIR      12   0  58 SW9       30.34F WCI   0
CAMP DOUGLAS   PTSUNNY   18   3  53 SW15      30.36F WCI   3
$$

WIZ011>013-019>022-031-037>040-048>050-171800-
NORTHEAST WISCONSIN

CITY           SKY/WX    TMP DP  RH WIND       PRES   REMARKS
ANTIGO         FAIR       8  -1  66 W15G21    30.20F WCI  -9
SHAWANO        FAIR      15   3  59 SW13      30.28F WCI   1
OCONTO         FAIR      14   2  59 W15G24    30.28F WCI  -1
STURGEON BAY   NOT AVBL
GREEN BAY      FAIR      13   2  61 SW15G21   30.31F WCI  -3
MANITOWOC      FAIR      17   4  56 W12G21    30.34F WCI   4
APPLETON       MOSUNNY   12   0  57 SW16      30.31F WCI  -4
CLINTONVILLE   FAIR      12   1  62 W12       30.31F WCI  -2
OSHKOSH        FAIR      14   3  61 W9G18     30.35F WCI   2
$$

WIZ032>034-041-042-053>061-171800-
SOUTHWEST WISCONSIN

CITY           SKY/WX    TMP DP  RH WIND       PRES   REMARKS
LA CROSSE      FAIR      12   2  64 S9        30.40F WCI   0
SPARTA         FAIR      14   5  66 W7        30.40S WCI   4
VIROQUA        FAIR      11   5  74 SW10      30.37S WCI  -2
BOSCOBEL       FAIR      13   2  61 SW12G18   30.47F WCI  -1
PRAIRIE DU CHI FAIR      11   1  62 S3        30.48F
PLATTEVILLE    FAIR      12  10  90 SW12      30.47F WCI  -2
$$

WIZ056-057-062-063-064-067-068-171800-
SOUTH CENTRAL WISCONSIN

CITY           SKY/WX    TMP DP  RH WIND       PRES   REMARKS
REEDSBURG      FAIR      11   2  65 W9        30.41F WCI  -1
BARABOO/DELLS  FAIR      11   2  66 W10       30.40F WCI  -2
LONE ROCK      NOT AVBL
MINERAL POINT  FAIR      12   9  85 SW14      30.43F WCI  -3
MADISON        PTSUNNY   14   5  67 W8        30.42F WCI   3
MIDDLETON      FAIR      15   6  67 SW9       30.43F WCI   3
WATERTOWN      FAIR      11  11  98 SW9       30.43F WCI  -1
MONROE         FAIR      10   5  79 SW14      30.45F WCI  -5
JANESVILLE     MOSUNNY   10  10 100 SW14      30.48F WCI  -5
$$

WIZ051-052-058>065-066-070>072-171800-
SOUTHEAST WISCONSIN

CITY           SKY/WX    TMP DP  RH WIND       PRES   REMARKS
MILWAUKEE      FAIR      15   7  70 SW12      30.44F WCI   2
WAUKESHA       SUNNY     14   5  67 W15       30.42F WCI  -1
MILWAUKEE/TIMM SUNNY     16   5  62 W13G21    30.43F WCI   2
RACINE         FAIR      15   6  67 W15G23    30.46F WCI   0
BURLINGTON     FAIR      11   6  81 SW12      30.46F WCI  -4
KENOSHA        FAIR      15   6  67 W16       30.46F WCI  -1
FOND DU LAC    FAIR      15   2  56 SW13G21   30.37F WCI   1
SHEBOYGAN      FAIR      18   7  62 SW14      30.35F WCI   4
WEST BEND      FAIR      16   9  73 W14       30.39F WCI   1
JUNEAU         FAIR      10   5  80 SW14      30.42S WCI  -5
$$

LSZ147-162-171800-
LAKE SUPERIOR

STATION/POSITION TIME  TEMP    WIND        PRES    WAVE
                       AIR SEA DIR/SP/G            HT/PER
                 (UTC) (F)     (DEG/KT/KT) (MB)    (FT/S)
DEVILS ISLAND    1600   15     230/ 28/ 37 1018.4F
SAXON HARBOR     1640   19     190/ 16/ 24 1017.3F
$$

LMZ867-665-643>646-171800-
LAKE MICHIGAN

STATION/POSITION TIME  TEMP    WIND        PRES    WAVE
                       AIR SEA DIR/SP/G            HT/PER
                 (UTC) (F)     (DEG/KT/KT) (MB)    (FT/S)
NORTHPORT PIER   1640   13     230/  5/ 24 1022.4F
KEWAUNEE LAKESHO 1630   13     260/ 10/ 16 1025.7F
SHEBOYGAN LAKESH 1600   17     250/ 12/ 17 1030.0F
PORT WASHINGTON  1640   18     260/  9/ 17 1030.8F
MILWAUKEE LAKESH 1630   15     230/ 10/ 11   N/A
KENOSHA   LAKESH 1600   12     260/  8/ 17 1032.5
$$

TC  - TEMPERATURE IN CELSIUS
VSB - VISIBILITY IN STATUTE MILES
WCI - WIND CHILL INDEX
HX  - HEAT INDEX





USA.gov is the U.S. government's official web portal to all federal, state and local government web resources and services.